This is the latest recevied weather packets stored in our database for station/object W0WC. If no packets are shown the sender has not sent any weather packets the latest 10 day(s).
| Time | Temp. | Humidity | Pressure | Rain* | Wind** | Luminosity | Snow |
|---|---|---|---|---|---|---|---|
| 1787947363 | 33.89° C | 33% | 1019.6 hPa | 0 mm | - | 631 W/m² | - |
| 1787947062 | 33.89° C | 32% | 1019.7 hPa | 0 mm | - | 641 W/m² | - |
| 1787946761 | 33.33° C | 33% | 1020 hPa | 0 mm | - | 651 W/m² | - |
| 1787946460 | 33.89° C | 32% | 1019.9 hPa | 0 mm | - | 657 W/m² | - |
| 1787946155 | 32.78° C | 33% | 1019.6 hPa | 0 mm | - | 666 W/m² | - |
| 1787945850 | 32.78° C | 36% | 1019.8 hPa | 0 mm | - | 670 W/m² | - |
| 1787945546 | 32.78° C | 35% | 1019.8 hPa | 0 mm | - | 676 W/m² | - |
| 1787945241 | 33.33° C | 34% | 1019.8 hPa | 0 mm | - | 682 W/m² | - |
| 1787944940 | 32.78° C | 34% | 1019.9 hPa | 0 mm | - | 688 W/m² | - |
| 1787944638 | 32.78° C | 34% | 1020 hPa | 0 mm | - | 695 W/m² | - |
| 1787944334 | 33.33° C | 33% | 1020.2 hPa | 0 mm | - | 700 W/m² | - |
| 1787944029 | 32.22° C | 35% | 1020.1 hPa | 0 mm | - | 703 W/m² | - |
| 1787943724 | 32.22° C | 35% | 1020.4 hPa | 0 mm | - | 706 W/m² | - |
| 1787943420 | 32.22° C | 35% | 1020.5 hPa | 0 mm | - | 709 W/m² | - |
| 1787943120 | 32.22° C | 35% | 1020.6 hPa | 0 mm | - | 713 W/m² | - |
| 1787942814 | 32.22° C | 34% | 1020.7 hPa | 0 mm | - | 716 W/m² | - |
| 1787942509 | 32.78° C | 34% | 1020.6 hPa | 0 mm | - | 718 W/m² | - |
| 1787942204 | 32.78° C | 37% | 1020.7 hPa | 0 mm | - | 718 W/m² | - |
| 1787941900 | 32.22° C | 39% | 1020.5 hPa | 0 mm | - | 716 W/m² | - |
| 1787941599 | 32.22° C | 40% | 1020.8 hPa | 0 mm | - | 719 W/m² | - |
| 1787941293 | 32.22° C | 40% | 1020.8 hPa | 0 mm | - | 725 W/m² | - |
| 1787940993 | 32.22° C | 40% | 1020.8 hPa | 0 mm | - | 719 W/m² | - |
| 1787940692 | 32.22° C | 39% | 1020.9 hPa | 0 mm | - | 722 W/m² | - |
| 1787940391 | 31.67° C | 40% | 1021 hPa | 0 mm | - | 719 W/m² | - |
| 1787940090 | 31.67° C | 41% | 1021 hPa | 0 mm | - | 716 W/m² | - |
* Rain latest hour (hover to see other rain measurements)
** Current wind speed in m/s (hover to see current wind gust speed)